Change the Weather History Date:

Wednesday, March 13, 2013

  Actual Average Record
Temperature  
Mean Temperature 56 °F -  
Max Temperature 67 °F 67 °F 84 °F (2006)
Min Temperature 45 °F 48 °F 26 °F (1998)
Degree Days  
Heating Degree Days 8    
Growing Degree Days 6 (Base 50)    
Moisture  
Dew Point 28 °F    
Average Humidity 35    
Maximum Humidity 62    
Minimum Humidity 19    
Precipitation  
Precipitation 0.00 in - - ()
Sea Level Pressure  
Sea Level Pressure 30.09 in    
Wind  
Wind Speed 7 mph (WNW)    
Max Wind Speed 18 mph    
Max Gust Speed 28 mph    
Visibility 10 miles    
Events      
Averages and records for this station are not official NWS values.
T = Trace of Precipitation, MM = Missing Value Source: NWS Daily Summary

Daily Weather History Graph

Daily Weather History Graph

Search for Another Location

Airport or City:

Trip Planner

Search our weather history database for the weather conditions in past years. The results will help you decide how hot, cold, wet, or windy it might be!

Date:

Astronomy

Mar. 13, 2013 Rise Set
Actual Time 7:36 AM EDT 7:31 PM EDT
Civil Twilight 7:12 AM EDT 7:55 PM EDT
Nautical Twilight 6:44 AM EDT 8:24 PM EDT
Astronomical Twilight 6:15 AM EDT 8:52 PM EDT
Moon 8:24 AM EDT (3/13) 9:35 PM EDT (3/13)
Length of Visible Light 12h 43m
Length of Day
11h 54m
Waxing Crescent, 4% of the Moon is Illuminated
Mar 13
Waxing Crescent
Mar 19
First Quarter
Mar 27
Full
Apr 3
Last Quarter
Apr 10
New

Hourly Weather History & Observations

Time (EDT) Temp. Dew Point Humidity Pressure Visibility Wind Dir Wind Speed Gust Speed Precip Events Conditions
12:55 AM 53.6 °F 35.6 °F 51% 29.99 in 10.0 mi WNW 4.6 mph - N/A   Clear
1:58 AM 52.5 °F 34.7 °F 51% 30.02 in 10.0 mi WNW 5.8 mph - N/A   Clear
2:58 AM 51.8 °F 33.4 °F 50% 30.03 in 10.0 mi Variable 4.6 mph - N/A   Clear
3:58 AM 50.4 °F 33.1 °F 52% 30.04 in 10.0 mi WNW 3.5 mph - N/A   Clear
4:58 AM 49.3 °F 33.1 °F 54% 30.05 in 10.0 mi WNW 3.5 mph - N/A   Clear
5:58 AM 47.8 °F 32.7 °F 56% 30.07 in 10.0 mi Variable 2.3 mph - N/A   Clear
6:58 AM 46.8 °F 32.9 °F 59% 30.11 in 10.0 mi WNW 2.3 mph - N/A   Clear
7:58 AM 45.9 °F 33.4 °F 62% 30.13 in 10.0 mi Variable 2.3 mph - N/A   Clear
8:58 AM 50.2 °F 32.9 °F 52% 30.15 in 10.0 mi Variable 4.6 mph - N/A   Clear
9:58 AM 55.2 °F 31.1 °F 40% 30.16 in 10.0 mi Variable 5.8 mph - N/A   Clear
10:58 AM 59.0 °F 28.4 °F 31% 30.16 in 10.0 mi Variable 6.9 mph - N/A   Clear
11:58 AM 62.2 °F 28.0 °F 27% 30.16 in 10.0 mi NNW 9.2 mph - N/A   Clear
12:54 PM 66.2 °F 26.6 °F 23% 30.12 in 10.0 mi West 18.4 mph 24.2 mph N/A   Clear
12:58 PM 65.3 °F 27.1 °F 24% 30.13 in 10.0 mi WNW 9.2 mph 24.2 mph N/A   Clear
1:31 PM 66.2 °F 26.6 °F 23% 30.10 in 10.0 mi WNW 12.7 mph 19.6 mph N/A   Clear
1:58 PM 66.4 °F 24.3 °F 20% 30.10 in 10.0 mi WNW 16.1 mph 24.2 mph N/A   Clear
2:17 PM 66.2 °F 24.8 °F 21% 30.07 in 10.0 mi NW 13.8 mph 21.9 mph N/A   Clear
2:28 PM 68.0 °F 24.8 °F 20% 30.07 in 10.0 mi West 15.0 mph 24.2 mph N/A   Clear
2:40 PM 68.0 °F 24.8 °F 20% 30.06 in 10.0 mi West 15.0 mph 20.7 mph N/A   Clear
2:58 PM 67.6 °F 24.3 °F 19% 30.06 in 10.0 mi West 17.3 mph 27.6 mph N/A   Clear
3:58 PM 67.1 °F 25.2 °F 21% 30.05 in 10.0 mi West 11.5 mph 26.5 mph N/A   Clear
4:58 PM 67.3 °F 26.4 °F 22% 30.04 in 10.0 mi West 16.1 mph 23.0 mph N/A   Clear
5:58 PM 65.3 °F 23.5 °F 20% 30.04 in 10.0 mi WNW 13.8 mph 21.9 mph N/A   Clear
6:58 PM 63.3 °F 26.1 °F 24% 30.05 in 10.0 mi West 16.1 mph - N/A   Clear
7:58 PM 57.9 °F 27.0 °F 31% 30.07 in 10.0 mi West 5.8 mph - N/A   Clear
8:58 PM 52.9 °F 29.1 °F 40% 30.08 in 10.0 mi West 5.8 mph - N/A   Clear
9:58 PM 50.0 °F 29.1 °F 45% 30.11 in 10.0 mi WNW 5.8 mph - N/A   Clear
10:58 PM 54.7 °F 22.5 °F 29% 30.12 in 10.0 mi WNW 6.9 mph - N/A   Clear
11:58 PM 52.3 °F 21.2 °F 30% 30.15 in 10.0 mi WNW 5.8 mph - N/A   Clear